This demonstration page uses our WeatherBlox Daily Observations layout. Learn more.

Left ArrowRight Arrow

41.55636, -103.73856

Hourly Observations for February 24, 2016

Temp ( °F °C ) Dew Point ( °F °C ) Humidity (%) Winds ( mph kmh ) Pressure ( in mb ) Visibility ( mi km ) Precip ( " mm )
12:53 am 00:53 Clear 22 -5.6 13 -10.6 68 68 NNW 8 13 30.22 1024 10 16.0934 N/A
1:53 am 01:53 Clear 21 -6.1 12 -11.1 68 68 N N/A 30.21 1023 10 16.0934 N/A
2:53 am 02:53 Clear 19 -7.2 11 -11.7 71 71 N N/A 30.17 1022 10 16.0934 N/A
3:53 am 03:53 Clear 20 -6.7 12 -11.1 71 71 NNW 3 6 30.14 1021 10 16.0934 N/A
4:53 am 04:53 Clear 21 -6.1 14 -10 74 74 NNW 7 11 30.14 1021 10 16.0934 N/A
5:53 am 05:53 Clear 23 -5 15 -9.4 72 72 NW 12 19 30.17 1022 10 16.0934 N/A
6:53 am 06:53 Sunny 22 -5.6 14 -10 71 71 NW 12 19 30.2 1023 10 16.0934 N/A
7:53 am 07:53 Sunny 30 -1.1 18 -7.8 61 61 WNW 13 20 30.21 1023 10 16.0934 N/A
8:53 am 08:53 Sunny 39 3.9 16 -8.9 39 39 NW 21 33 30.22 1023 10 16.0934 N/A
9:53 am 09:53 Sunny 42 5.6 12 -11.1 29 29 NW 26 43 30.22 1024 10 16.0934 N/A
10:53 am 10:53 Sunny 43 6.1 10 -12.2 26 26 NNW 28 44 30.24 1024 10 16.0934 N/A
11:53 am 11:53 Sunny 44 6.7 10 -12.2 25 25 NW 25 41 30.22 1024 10 16.0934 N/A
12:53 pm 12:53 Sunny 45 7.2 10 -12.2 24 24 NNW 29 46 30.2 1023 10 16.0934 N/A
1:53 pm 13:53 Mostly Sunny 46 8 9 -13 21 21 NNW 25 41 30.12 1020 10 16.0934 N/A
2:53 pm 14:53 Sunny 45 7.2 7 -13.9 21 21 NW 24 39 30.19 1023 10 16.0934 N/A
3:53 pm 15:53 Mostly Sunny 45 7.2 8 -13.3 22 22 NNW 25 41 30.19 1022 10 16.0934 N/A
4:53 pm 16:53 Sunny 42 5.6 8 -13.3 24 24 N 28 44 30.21 1023 10 16.0934 N/A
5:53 pm 17:53 Clear 37 2.8 7 -13.9 28 28 N 20 31 30.24 1024 10 16.0934 N/A
6:53 pm 18:53 Clear 34 1.1 9 -12.8 35 35 N 17 28 30.27 1025 10 16.0934 N/A
7:53 pm 19:53 Clear 32 undefined 9 -12.8 38 38 N 14 22 30.28 1026 10 16.0934 N/A
8:53 pm 20:53 Clear 29 -1.7 9 -12.8 43 43 N 8 13 30.31 1026 10 16.0934 N/A
9:53 pm 21:53 Clear 26 -3.3 10 -12.2 51 51 NNE 6 9 30.34 1027 10 16.0934 N/A
10:53 pm 22:53 Clear 26 -3.3 10 -12.2 51 51 N N/A 30.35 1028 10 16.0934 N/A
11:53 pm 23:53 Clear 20 -6.7 10 -12.2 65 65 SW 3 6 30.37 1029 10 16.0934 N/A

Powered by AerisWeather